Date,TemperatureHighF,TemperatureAvgF,TemperatureLowF,DewpointHighF,DewpointAvgF,DewpointLowF,HumidityHigh,HumidityAvg,HumidityLow,PressureMaxIn,PressureMinIn,WindSpeedMaxMPH,WindSpeedAvgMPH,GustSpeedMaxMPH,PrecipitationSumIn
2013-1-1,34.7,18.3,10.0,20.9,13.7,6.9,92,83,53,30.67,30.54,5,1,8,0.00
2013-1-2,17.8,11.4,6.7,14.1,8.6,3.9,91,88,83,30.66,30.59,6,1,7,0.00
2013-1-3,33.0,17.2,2.9,19.2,10.5,-0.4,93,76,51,30.59,30.42,10,2,15,0.00
2013-1-4,44.3,26.7,15.2,29.3,19.0,11.5,88,73,50,30.50,30.35,14,2,17,0.00
2013-1-5,30.6,25.7,19.1,26.3,21.0,16.1,89,82,68,30.36,30.27,8,1,14,0.00
2013-1-6,41.6,32.7,24.0,30.4,26.5,20.2,89,78,62,30.29,30.14,18,3,22,0.00
2013-1-7,46.9,39.8,34.6,38.2,33.2,27.7,89,77,65,30.18,30.05,20,7,27,0.00
2013-1-8,49.2,42.2,36.5,39.0,35.6,31.3,85,78,67,30.18,30.00,20,8,24,0.00
2013-1-9,45.1,37.1,25.4,36.1,29.9,21.3,87,76,62,30.00,29.73,21,5,31,0.02
2013-1-10,33.5,26.2,22.4,26.4,20.3,17.3,88,79,60,30.09,29.89,12,3,16,0.02
2013-1-11,30.1,21.2,15.2,18.1,14.8,11.7,88,77,56,30.34,30.07,8,2,15,0.00
2013-1-12,29.1,17.0,10.4,15.2,9.7,6.5,84,74,47,30.47,30.33,12,4,14,0.00
2013-1-13,30.7,16.7,6.9,11.7,6.9,2.0,82,67,36,30.55,30.44,15,5,17,0.00
2013-1-14,42.0,26.1,14.8,23.8,14.5,6.3,76,62,41,30.57,30.46,15,6,19,0.00
2013-1-15,52.7,35.5,24.4,27.0,21.5,16.3,77,59,33,30.66,30.54,14,5,18,0.00
2013-1-16,55.3,38.2,28.4,26.0,20.8,17.7,70,52,23,30.63,30.50,18,8,21,0.00
2013-1-17,55.3,36.3,25.5,26.3,21.7,16.9,83,58,23,30.52,30.39,11,3,13,0.00
2013-1-18,55.3,36.4,23.8,26.2,21.5,18.8,83,57,29,30.43,30.35,11,3,17,0.00
2013-1-19,58.7,37.6,28.4,26.8,21.3,17.1,72,54,20,30.43,30.34,12,4,17,0.00
2013-1-20,51.4,34.3,24.5,21.9,18.9,16.6,74,56,26,30.46,30.36,10,2,12,0.00
2013-1-21,55.4,35.9,24.3,21.1,16.7,10.4,74,49,17,30.38,30.22,17,4,20,0.00
2013-1-22,50.5,33.0,22.7,24.4,19.2,14.1,79,59,31,30.24,30.09,10,2,13,0.00
2013-1-23,52.9,40.2,31.8,36.5,28.5,20.2,84,64,37,30.12,29.88,12,2,22,0.00
2013-1-24,51.9,42.3,31.2,39.3,35.2,29.3,96,77,55,30.17,30.10,18,4,21,0.00
2013-1-25,46.3,42.0,35.5,40.6,37.9,33.4,96,86,78,30.14,29.91,16,4,19,0.01
2013-1-26,45.5,34.4,29.3,34.9,26.2,22.0,94,73,44,30.05,29.91,13,3,17,0.01
2013-1-27,38.9,31.8,26.2,26.8,23.8,19.8,87,73,49,30.13,30.04,12,4,15,0.00
2013-1-28,37.3,34.4,31.2,28.3,26.5,23.9,82,73,64,30.15,30.05,12,3,20,0.00
2013-1-29,49.1,40.0,36.3,34.7,30.4,27.8,77,69,56,30.39,30.11,13,5,24,0.00
2013-1-30,48.6,41.3,36.6,36.3,32.7,28.0,82,71,60,30.43,30.38,13,5,15,0.00
2013-1-31,50.9,38.4,30.8,34.6,31.3,28.2,90,77,51,30.39,30.29,12,4,15,0.00